1530349201.22,26787,17.0,73296.3,15.51,-25.45,-27.83,0,*49
1530349202.47,26788,17.0,73296.3,15.49,-25.29,-27.61,0,*49
1530349203.72,26789,17.0,73298.8,15.51,-25.19,-27.61,0,*42
1530349204.94,26790,17.0,73292.8,15.53,-26.39,-29.13,0,*42
1530349206.16,26791,17.0,73294.8,15.53,-26.07,-28.75,0,*4F
1530349207.45,26792,17.0,73294.8,15.55,-25.71,-28.47,0,*49
1530349208.69,26793,17.0,73292.5,15.53,-25.71,-28.15,0,*49
1530349209.9,26794,17.0,73298.5,15.53,-24.93,-27.23,0,*49
1530349211.13,26795,17.0,73296.3,15.55,-25.19,-27.51,0,*48
1530349212.4,26796,17.0,73296.0,15.55,-26.71,-29.29,0,*47
1530349213.62,26797,17.0,73292.0,15.55,-26.23,-28.69,0,*44
1530349214.83,26798,17.0,73294.5,15.57,-26.03,-28.37,0,*40
1530349216.09,26799,17.0,73292.3,15.55,-25.91,-28.21,0,*4C
1530349217.3,26800,17.0,73292.3,15.57,-26.07,-28.53,0,*48
1530349218.5,26801,17.0,73296.8,15.57,-26.23,-28.53,0,*4F
1530349219.72,26802,17.0,73298.3,15.57,-27.19,-29.61,0,*44
1530349220.95,26803,17.0,73296.0,15.57,-26.77,-29.07,0,*4C
1530349222.2,26804,17.0,73296.0,15.57,-26.55,-28.91,0,*45
1530349223.43,26805,17.0,73298.0,15.55,-25.23,-27.55,0,*43
1530349224.68,26806,17.0,73298.3,15.55,-25.09,-27.35,0,*4E
1530349225.91,26807,17.0,73294.8,15.57,-26.93,-29.61,0,*42
1530349227.15,26808,17.0,73292.8,15.57,-28.85,-31.39,0,*40
1530349228.41,26809,17.0,73294.5,15.55,-28.21,-31.05,0,*42
1530349229.63,26810,17.0,73296.5,15.53,-26.61,-29.01,0,*4B
1530349230.86,26811,17.0,73296.3,15.53,-26.39,-28.75,0,*45
1530349232.12,26812,17.0,73296.5,15.55,-25.87,-28.21,0,*47
1530349233.37,26813,17.0,73298.8,15.55,-25.65,-27.83,0,*4D
1530349234.63,26814,17.0,73296.3,15.55,-26.49,-28.91,0,*4B
1530349235.86,26815,17.0,73296.0,15.55,-27.55,-29.95,0,*43
1530349237.08,26816,17.0,73292.8,15.53,-26.23,-28.59,0,*47
1530349238.34,26817,17.0,73294.0,15.53,-26.81,-29.17,0,*45
1530349239.59,26818,17.0,73294.0,15.55,-27.07,-29.29,0,*4E
1530349240.84,26819,17.0,73294.3,15.55,-26.39,-28.91,0,*41
1530349242.08,26820,17.0,73292.3,15.55,-26.39,-28.85,0,*4E
1530349243.3,26821,17.0,73294.3,15.53,-26.71,-28.97,0,*46
1530349244.56,26822,17.0,73298.0,15.55,-26.33,-28.69,0,*44
1530349245.76,26823,17.0,73298.0,15.53,-24.93,-27.29,0,*40
1530349247.02,26824,17.0,73298.8,15.55,-24.51,-26.71,0,*43
1530349248.23,26825,17.0,73300.5,15.57,-25.65,-27.67,0,*40
1530349249.44,26826,17.0,73298.3,15.57,-27.71,-30.33,0,*43
1530349250.68,26827,17.0,73296.3,15.57,-26.71,-29.13,0,*49
1530349251.92,26828,17.0,73296.5,15.57,-26.03,-28.59,0,*4C
1530349253.18,26829,17.0,73298.3,15.59,-26.17,-28.69,0,*45
1530349254.38,26830,17.0,73296.5,15.57,-27.51,-30.11,0,*46
1530349255.62,26831,17.0,73298.5,15.57,-26.17,-28.53,0,*4B
1530349256.9,26832,17.0,73292.3,15.59,-25.03,-27.19,0,*41
1530349258.13,26833,17.0,73292.3,15.59,-25.87,-28.53,0,*4D
1530349259.33,26834,17.0,73294.8,15.57,-25.91,-28.37,0,*41
1530349260.56,26835,17.0,73292.3,15.59,-25.61,-28.15,0,*41
1530349261.8,26836,17.0,73298.0,15.59,-25.65,-28.15,0,*46
1530349263.08,26837,17.0,73298.5,15.63,-25.81,-28.63,0,*45
1530349264.31,26838,17.0,73294.0,15.61,-24.77,-27.61,0,*4D
1530349265.56,26839,17.0,73294.5,15.59,-24.15,-26.61,0,*42
1530349266.79,26840,17.0,73296.8,15.63,-25.39,-27.93,0,*46
1530349268.05,26841,17.0,73296.5,15.63,-26.93,-29.83,0,*4B
1530349269.25,26842,17.0,73298.8,15.61,-26.61,-29.45,0,*4D
1530349270.47,26843,17.0,73294.8,15.61,-25.97,-28.97,0,*48
1530349271.7,26844,17.0,73296.5,15.63,-25.23,-27.93,0,*49
1530349272.97,26845,17.0,73298.0,15.63,-25.45,-28.25,0,*4A
1530349274.21,26846,17.0,73300.3,15.63,-24.61,-27.29,0,*4D
1530349275.49,26847,17.0,73298.8,15.63,-23.53,-26.13,0,*42
1530349276.69,26848,17.0,73296.5,15.69,-23.39,-26.03,0,*4A
1530349277.89,26849,17.0,73298.5,15.69,-25.19,-28.15,0,*46
1530349279.09,26850,17.0,73298.8,15.69,-26.45,-29.23,0,*40
1530349280.35,26851,17.0,73294.5,15.67,-27.71,-30.61,0,*47
1530349281.61,26852,17.0,73296.3,15.67,-28.09,-31.17,0,*44
1530349282.86,26853,17.0,73296.5,15.63,-27.13,-30.01,0,*43
1530349284.11,26854,17.0,73298.8,15.61,-26.13,-29.01,0,*4F
1530349285.34,26855,17.0,73298.8,15.61,-25.55,-28.15,0,*4B
1530349286.6,26856,17.0,73296.0,15.63,-25.45,-28.31,0,*4D
1530349287.85,26857,17.0,73298.8,15.63,-26.13,-28.97,0,*40
1530349289.07,26858,17.0,73298.0,15.61,-25.91,-28.63,0,*4F
1530349290.33,26859,17.0,73298.8,15.61,-25.55,-28.25,0,*44
1530349291.59,26860,17.0,73298.3,15.63,-26.93,-29.83,0,*48
1530349292.82,26861,17.0,73296.3,15.63,-24.97,-27.55,0,*4A
1530349294.03,26862,17.0,73300.5,15.63,-24.93,-27.55,0,*4D
1530349295.29,26863,17.0,73296.3,15.63,-26.93,-29.67,0,*41
1530349296.55,26864,17.0,73296.3,15.63,-25.97,-28.85,0,*4C
1530349297.77,26865,17.0,73298.0,15.61,-24.93,-27.39,0,*42
1530349299.0,26866,17.0,73294.5,15.63,-25.09,-27.71,0,*4D
1530349300.29,26867,17.0,73298.8,15.67,-24.25,-26.77,0,*40
1530349301.54,26868,17.0,73294.3,15.67,-27.77,-30.95,0,*40
1530349302.8,26869,17.0,73296.0,15.63,-27.71,-30.73,0,*4B
1530349304.03,26870,17.0,73294.0,15.61,-28.85,-31.91,0,*48
1530349305.26,26871,17.0,73294.5,15.61,-28.63,-31.29,0,*42
1530349306.46,26872,17.0,73296.5,15.57,-26.87,-29.57,0,*40
1530349307.72,26873,17.0,73298.8,15.59,-26.55,-29.45,0,*43
1530349308.97,26874,17.0,73298.0,15.59,-26.61,-29.35,0,*44
1530349310.21,26875,17.0,73298.8,15.57,-25.55,-28.53,0,*4E
1530349311.42,26876,17.0,73296.3,15.57,-25.65,-28.53,0,*4E
1530349312.66,26877,17.0,73302.3,15.59,-26.13,-29.07,0,*43
1530349313.87,26878,17.0,73296.5,15.57,-27.03,-29.95,0,*49
1530349315.1,26879,17.0,73298.0,15.57,-26.65,-29.73,0,*41
1530349316.31,26880,17.0,73294.5,15.57,-25.87,-28.69,0,*42
1530349317.54,26881,17.0,73298.0,15.57,-25.09,-27.83,0,*4E
1530349318.79,26882,17.0,73300.0,15.59,-25.19,-27.83,0,*42
1530349319.98,26883,17.0,73300.0,15.61,-25.23,-27.93,0,*40
1530349321.21,26884,17.0,73302.5,15.61,-24.83,-27.55,0,*46
1530349322.44,26885,17.0,73300.5,15.61,-24.77,-27.39,0,*46
1530349323.63,26886,17.0,73298.0,15.61,-27.13,-30.23,0,*49
1530349324.89,26887,17.0,73296.0,15.61,-27.39,-30.17,0,*47
1530349326.11,26888,17.0,73296.3,15.61,-26.45,-29.17,0,*4A
1530349327.31,26889,17.0,73300.5,15.61,-25.65,-28.31,0,*4F
1530349328.57,26890,17.0,73296.5,15.61,-27.39,-30.73,0,*43
1530349329.82,26891,17.0,73296.0,15.61,-27.39,-30.01,0,*47
1530349331.03,26892,17.0,73302.5,15.57,-27.51,-30.45,0,*4F
1530349332.27,26893,17.0,73296.8,15.57,-29.45,-32.75,0,*44
1530349333.53,26894,17.0,73298.0,15.55,-27.39,-29.95,0,*40
1530349334.78,26895,17.0,73296.3,15.55,-27.39,-30.11,0,*45
1530349336.03,26896,17.0,73296.3,15.53,-27.23,-30.01,0,*4A
1530349337.29,26897,17.0,73302.3,15.53,-25.55,-28.09,0,*49
1530349338.53,26898,17.0,73302.5,15.57,-24.41,-27.03,0,*43
1530349339.73,26899,17.0,73300.8,15.57,-24.93,-27.51,0,*4A
1530349340.93,26900,17.0,73302.3,15.57,-25.19,-27.71,0,*4A
1530349342.16,26901,17.0,73300.0,15.59,-24.35,-27.03,0,*4F
1530349343.39,26902,17.0,73298.0,15.59,-26.45,-29.23,0,*45
1530349344.65,26903,17.0,73296.0,15.59,-26.65,-29.35,0,*41
1530349345.91,26904,17.0,73298.8,15.61,-25.97,-28.63,0,*41
1530349347.15,26905,17.0,73298.3,15.63,-26.45,-29.13,0,*48
1530349348.43,26906,17.0,73302.8,15.59,-26.81,-29.39,0,*42
1530349349.72,26907,17.0,73300.3,15.59,-25.97,-28.63,0,*49
1530349350.95,26908,17.0,73296.3,15.59,-25.87,-28.37,0,*46
1530349352.17,26909,17.0,73300.3,15.61,-25.45,-27.93,0,*43
1530349353.4,26910,17.0,73300.3,15.63,-25.65,-28.31,0,*4C
1530349354.63,26911,17.0,73300.5,15.61,-30.67,-33.77,0,*41
1530349355.88,26912,17.0,73300.0,15.59,-27.99,-29.95,0,*49
1530349357.12,26913,17.0,73296.8,15.57,-26.07,-28.59,0,*41
1530349358.37,26914,17.0,73300.8,15.59,-25.49,-27.99,0,*42
1530349359.61,26915,17.0,73300.5,15.59,-24.57,-26.87,0,*43
1530349360.83,26916,17.0,73302.3,15.61,-25.91,-28.43,0,*46
1530349362.08,26917,17.0,73304.3,15.61,-26.13,-28.59,0,*45
1530349363.33,26918,17.0,73300.3,15.63,-24.67,-27.07,0,*4D
1530349364.59,26919,17.0,73302.3,15.63,-26.07,-28.63,0,*45
1530349365.84,26920,17.0,73302.8,15.69,-26.17,-28.75,0,*43
1530349367.1,26921,17.0,73300.0,15.63,-25.75,-28.15,0,*49
1530349368.36,26922,17.0,73300.5,15.67,-27.51,-30.01,0,*46
1530349369.61,26923,17.0,73298.3,15.67,-28.75,-31.33,0,*4E
1530349370.85,26924,17.0,73296.3,15.63,-27.29,-29.83,0,*49
1530349372.1,26925,17.0,73298.5,15.63,-28.47,-31.29,0,*46
1530349373.39,26926,17.0,73296.0,15.59,-29.35,-31.61,0,*44
1530349374.61,26927,17.0,73298.5,15.57,-27.03,-29.13,0,*4C
1530349375.82,26928,17.0,73300.0,15.57,-26.45,-28.85,0,*4E
1530349377.1,26929,17.0,73298.3,15.59,-25.81,-28.21,0,*44
1530349378.36,26930,17.0,73296.3,15.59,-28.85,-31.61,0,*49
1530349379.64,26931,17.0,73294.8,15.55,-29.13,-31.51,0,*49
1530349380.91,26932,17.0,73294.5,15.55,-28.25,-30.67,0,*4A
1530349382.19,26933,17.0,73294.8,15.55,-27.23,-29.73,0,*4F
1530349383.44,26934,17.0,73296.0,15.55,-26.77,-29.07,0,*4B
1530349384.68,26935,17.0,73298.3,15.55,-26.87,-29.13,0,*40
1530349385.95,26936,17.0,73296.3,15.55,-25.55,-27.67,0,*42
1530349387.17,26937,17.0,73298.3,15.55,-26.65,-29.23,0,*4D
1530349388.41,26938,17.0,73298.8,15.57,-28.21,-30.33,0,*47
1530349389.62,26939,17.0,73298.5,15.57,-25.65,-27.89,0,*4C
1530349390.85,26940,17.0,73296.5,15.59,-25.35,-27.67,0,*49
1530349392.13,26941,17.0,73292.8,15.59,-26.71,-29.35,0,*42
1530349393.42,26942,17.0,73298.8,15.59,-26.17,-28.63,0,*43
1530349394.71,26943,17.0,73298.5,15.59,-26.97,-29.51,0,*4A
1530349395.96,26944,17.0,73296.5,15.59,-25.49,-27.83,0,*4C
1530349397.24,26945,17.0,73298.3,15.59,-26.71,-29.35,0,*46
1530349398.48,26946,17.0,73296.0,15.59,-25.65,-28.15,0,*40
1530349399.76,26947,17.0,73302.0,15.63,-26.13,-28.59,0,*42
1530349401.01,26948,17.0,73298.0,15.61,-27.39,-30.17,0,*45
1530349402.26,26949,17.0,73296.3,15.61,-28.75,-31.39,0,*4E
1530349403.5,26950,17.0,73298.8,15.57,-28.59,-31.17,0,*41
1530349404.7,26951,17.0,73300.5,15.57,-27.89,-30.45,0,*44
1530349405.95,26952,17.0,73300.5,15.53,-26.13,-28.79,0,*47
1530349407.21,26953,17.0,73296.0,15.55,-25.49,-27.83,0,*46
1530349408.44,26954,17.0,73296.3,15.57,-27.93,-30.95,0,*47
1530349409.67,26955,17.0,73298.3,15.57,-29.45,-32.29,0,*46
1530349410.9,26956,17.0,73298.8,15.53,-27.39,-29.95,0,*49
1530349412.14,26957,17.0,73298.8,15.55,-27.19,-29.79,0,*4E
1530349413.34,26958,17.0,73294.0,15.53,-26.23,-28.97,0,*4E
1530349414.56,26959,17.0,73296.0,15.53,-26.81,-29.79,0,*46
1530349415.8,26960,17.0,73294.3,15.53,-28.25,-31.05,0,*4E
1530349417.02,26961,17.0,73296.3,15.53,-26.45,-29.01,0,*4A
1530349418.26,26962,17.0,73296.5,15.51,-27.67,-30.27,0,*46
1530349419.51,26963,17.0,73298.0,15.51,-26.87,-29.51,0,*41
1530349420.75,26964,17.0,73298.0,15.53,-27.29,-30.17,0,*4B
1530349422.01,26965,17.0,73296.8,15.49,-28.79,-31.61,0,*4B
1530349423.27,26966,17.0,73296.0,15.49,-29.39,-32.29,0,*42
1530349424.5,26967,17.0,73300.8,15.45,-27.67,-30.33,0,*43
1530349425.73,26968,17.0,73298.3,15.49,-26.81,-29.57,0,*43
1530349426.98,26969,17.0,73300.0,15.45,-27.03,-29.73,0,*43
1530349428.21,26970,17.0,73296.8,15.47,-27.51,-30.05,0,*47
1530349429.46,26971,17.0,73300.5,15.47,-29.13,-32.19,0,*41
1530349430.72,26972,17.0,73300.5,15.45,-27.67,-30.17,0,*41
1530349431.96,26973,17.0,73298.8,15.45,-27.89,-30.67,0,*47
1530349433.21,26974,17.0,73300.8,15.47,-26.81,-29.13,0,*40
1530349434.48,26975,17.0,73300.5,15.45,-26.93,-29.39,0,*48
1530349435.71,26976,17.0,73298.8,15.47,-25.65,-28.05,0,*4D
1530349436.94,26977,17.0,73300.8,15.47,-25.49,-27.83,0,*43
1530349438.17,26978,17.0,73300.5,15.49,-26.33,-28.97,0,*46
1530349439.41,26979,17.0,73302.5,15.49,-25.75,-28.31,0,*4A
1530349440.66,26980,17.0,73298.5,15.51,-25.35,-27.83,0,*47
1530349441.92,26981,17.0,73302.3,15.49,-26.97,-30.05,0,*4C
1530349443.18,26982,17.0,73300.8,15.49,-27.99,-30.73,0,*41
1530349444.42,26983,17.0,73302.0,15.49,-27.35,-30.05,0,*47
1530349445.63,26984,17.0,73300.5,15.49,-28.37,-31.05,0,*4C
1530349446.86,26985,17.0,73296.0,15.45,-28.69,-31.33,0,*4F
1530349448.14,26986,17.0,73298.5,15.45,-28.05,-30.51,0,*43
1530349449.39,26987,17.0,73302.0,15.43,-28.47,-31.23,0,*46
1530349450.62,26988,17.0,73300.8,15.39,-29.01,-31.79,0,*48
1530349451.82,26989,17.0,73302.3,15.39,-28.85,-31.67,0,*4B
1530349453.07,26990,17.0,73296.5,15.37,-28.59,-31.33,0,*4D
1530349454.32,26991,17.0,73298.8,15.37,-26.71,-29.45,0,*40
1530349455.55,26992,17.0,73300.8,15.39,-26.93,-29.67,0,*41
1530349456.79,26993,17.0,73300.8,15.37,-26.55,-29.23,0,*44
1530349458.02,26994,17.0,73302.3,15.35,-27.89,-30.51,0,*4C
1530349459.23,26995,17.0,73300.8,15.35,-25.87,-28.53,0,*4A
1530349460.48,26996,17.0,73302.5,15.37,-26.07,-29.01,0,*46
1530349461.76,26997,17.0,73302.5,15.37,-26.33,-29.17,0,*47
1530349462.98,26998,17.0,73304.5,15.39,-26.49,-29.17,0,*4B
1530349464.2,26999,17.0,73302.5,15.39,-25.19,-27.83,0,*4F
1530349465.43,27000,17.0,73300.5,15.39,-25.97,-28.69,0,*4A
1530349466.67,27001,17.0,73302.5,15.43,-25.55,-28.31,0,*45
1530349467.91,27002,17.0,73302.0,15.43,-26.13,-29.13,0,*46
1530349469.17,27003,17.0,73296.5,15.43,-27.39,-30.17,0,*42
1530349470.4,27004,17.0,73300.0,15.39,-27.93,-30.89,0,*4F
1530349471.63,27005,17.0,73298.8,15.39,-26.45,-29.35,0,*4B
1530349472.88,27006,17.0,73300.8,15.39,-26.97,-29.73,0,*45
1530349474.08,27007,17.0,73300.3,15.39,-25.91,-28.85,0,*49
1530349475.35,27008,17.0,73300.8,15.43,-24.71,-27.23,0,*47
1530349476.6,27009,17.0,73298.8,15.43,-25.75,-28.47,0,*4E
1530349477.85,27010,17.0,73300.8,15.45,-26.55,-29.45,0,*42
1530349479.13,27011,17.0,73298.0,15.45,-26.81,-29.39,0,*41
1530349480.33,27012,17.0,73292.3,15.43,-26.87,-29.45,0,*49
1530349481.57,27013,17.0,73292.5,15.43,-26.13,-28.79,0,*4B
1530349482.8,27014,17.0,73298.5,15.43,-26.61,-29.17,0,*40
1530349484.04,27015,17.0,73296.0,15.43,-26.55,-29.13,0,*42
1530349485.26,27016,17.0,73298.5,15.43,-26.55,-29.07,0,*44
1530349486.48,27017,17.0,73300.3,15.43,-25.45,-27.93,0,*44
1530349487.7,27018,17.0,73298.8,15.45,-25.23,-27.67,0,*46
1530349488.94,27019,17.0,73298.8,15.47,-25.49,-28.21,0,*44
1530349490.19,27020,17.0,73296.8,15.47,-25.81,-28.25,0,*4E
1530349491.39,27021,17.0,73296.5,15.47,-25.19,-27.67,0,*47
1530349492.62,27022,17.0,73298.0,15.49,-25.61,-27.99,0,*44
1530349493.88,27023,17.0,73298.8,15.51,-25.81,-28.31,0,*4F
1530349495.14,27024,17.0,73296.3,15.51,-26.97,-29.67,0,*4E
1530349496.37,27025,17.0,73292.8,15.49,-29.01,-31.79,0,*40
1530349497.61,27026,17.0,73296.0,15.47,-27.71,-30.17,0,*4D
1530349498.83,27027,17.0,73296.5,15.47,-27.23,-29.95,0,*49
1530349500.06,27028,17.0,73298.8,15.45,-29.07,-32.01,0,*4B
1530349501.31,27029,17.0,73298.0,15.43,-29.13,-31.73,0,*4F
1530349502.53,27030,17.0,73296.0,15.39,-27.51,-30.05,0,*42
1530349503.79,27031,17.0,73298.3,15.43,-26.77,-29.17,0,*40
1530349505.01,27032,17.06,73300.5,15.43,-27.39,-29.95,0,*42
1530349506.25,27033,17.0,73300.3,15.39,-28.53,-31.23,0,*49
1530349507.48,27034,17.0,73296.0,15.37,-27.71,-30.33,0,*4F
1530349508.76,27035,17.0,73296.3,15.37,-26.97,-29.39,0,*45
1530349509.99,27036,17.0,73300.8,15.39,-28.31,-30.89,0,*49
1530349511.27,27037,17.0,73300.5,15.37,-26.81,-29.17,0,*4C
1530349512.52,27038,17.0,73302.5,15.39,-26.13,-28.63,0,*44
1530349513.75,27039,17.0,73300.8,15.39,-25.75,-28.15,0,*47
1530349514.98,27040,17.0,73300.5,15.39,-26.93,-29.57,0,*45
1530349516.21,27041,17.0,73302.3,15.39,-27.51,-30.17,0,*47
1530349517.46,27042,17.0,73296.8,15.39,-27.99,-30.55,0,*46
1530349518.69,27043,17.0,73298.3,15.39,-29.01,-31.79,0,*47
1530349519.94,27044,17.0,73296.3,15.35,-29.17,-31.57,0,*47
1530349521.2,27045,17.0,73298.5,15.33,-28.43,-30.83,0,*48
1530349522.45,27046,17.0,73296.8,15.33,-28.43,-31.01,0,*40
1530349523.67,27047,17.0,73300.8,15.31,-29.79,-32.29,0,*42
1530349524.91,27048,17.0,73298.5,15.31,-29.45,-31.95,0,*46
1530349526.15,27049,17.0,73300.8,15.27,-29.07,-31.61,0,*4D
1530349527.38,27050,17.0,73298.3,15.27,-27.03,-29.39,0,*4B
1530349528.58,27051,17.0,73296.5,15.27,-26.39,-28.69,0,*46
1530349529.81,27052,17.0,73298.3,15.27,-26.81,-29.23,0,*49
1530349531.02,27053,17.0,73296.3,15.27,-27.13,-29.45,0,*42
1530349532.24,27054,17.0,73298.8,15.27,-28.37,-30.83,0,*4E
1530349533.48,27055,17.06,73302.3,15.27,-28.53,-30.77,0,*46
1530349534.71,27056,17.06,73306.0,15.23,-27.39,-29.79,0,*44
1530349535.99,27057,17.0,73304.3,15.25,-26.29,-28.63,0,*49
1530349537.23,27058,17.0,73306.5,15.27,-26.81,-29.45,0,*43
1530349538.49,27059,17.0,73306.0,15.25,-26.61,-28.91,0,*46
1530349539.76,27060,17.0,73300.0,15.27,-24.71,-26.97,0,*45
1530349541.01,27061,17.0,73302.5,15.29,-27.35,-30.33,0,*40
1530349542.28,27062,17.0,73300.3,15.29,-28.09,-30.55,0,*43
1530349543.56,27063,17.0,73302.5,15.25,-26.93,-29.39,0,*41
1530349544.8,27064,17.0,73304.3,15.27,-26.39,-28.59,0,*43
1530349546.06,27065,17.0,73302.8,15.27,-25.81,-27.99,0,*41
1530349547.3,27066,17.0,73298.8,15.29,-24.93,-26.81,0,*46
1530349548.55,27067,17.06,73302.0,15.31,-25.29,-27.23,0,*47
1530349549.8,27068,17.0,73302.0,15.31,-24.87,-26.93,0,*47
1530349551.07,27069,17.0,73302.0,15.33,-25.29,-27.45,0,*4B
1530349552.3,27070,17.0,73298.5,15.35,-26.55,-28.85,0,*4E
1530349553.5,27071,17.0,73298.5,15.35,-25.09,-27.07,0,*40
1530349554.75,27072,17.0,73300.8,15.37,-27.03,-29.29,0,*4B
1530349555.99,27073,17.06,73300.8,15.35,-29.01,-31.45,0,*47
1530349557.22,27074,17.0,73296.3,15.35,-28.85,-30.95,0,*41
1530349558.47,27075,17.0,73296.8,15.33,-26.87,-28.91,0,*47
1530349559.75,27076,17.0,73298.3,15.33,-26.55,-28.63,0,*46
1530349561.02,27077,17.0,73298.5,15.33,-26.93,-29.29,0,*42
1530349562.3,27078,17.0,73298.3,15.33,-26.71,-28.91,0,*43
1530349563.52,27079,17.0,73300.5,15.33,-27.77,-30.27,0,*41
1530349564.78,27080,17.0,73300.5,15.33,-29.61,-32.29,0,*42
1530349566.0,27081,17.0,73300.5,15.31,-30.39,-32.69,0,*40
1530349567.23,27082,17.0,73302.0,15.27,-27.99,-30.23,0,*44
1530349568.46,27083,17.06,73302.3,15.27,-27.35,-29.45,0,*4B
1530349569.69,27084,17.0,73300.3,15.27,-27.13,-29.35,0,*4F
1530349570.93,27085,17.0,73298.5,15.27,-27.03,-29.35,0,*4F
1530349572.19,27086,17.06,73302.0,15.27,-25.55,-27.83,0,*4E
1530349573.46,27087,17.0,73300.3,15.29,-25.29,-27.35,0,*47
1530349574.7,27088,17.0,73300.5,15.27,-25.81,-27.89,0,*43
1530349575.95,27089,17.0,73306.3,15.31,-26.29,-28.59,0,*46
1530349577.16,27090,17.06,73304.3,15.31,-27.93,-30.33,0,*4B
1530349578.42,27091,17.0,73304.3,15.29,-27.67,-30.01,0,*49
1530349579.61,27092,17.0,73302.8,15.31,-26.87,-28.97,0,*4A
1530349580.84,27093,17.0,73300.5,15.31,-27.39,-29.79,0,*4E
1530349582.07,27094,17.06,73302.5,15.31,-27.77,-30.01,0,*44
1530349583.35,27095,17.0,73298.8,15.29,-27.61,-30.05,0,*4F
1530349584.59,27096,17.06,73300.5,15.27,-28.31,-30.61,0,*4A
1530349585.84,27097,17.0,73300.8,15.29,-27.67,-30.05,0,*4B
1530349587.04,27098,17.0,73302.5,15.27,-26.23,-28.37,0,*43
1530349588.27,27099,17.0,73302.0,15.27,-25.19,-27.39,0,*49
1530349589.55,27100,17.0,73298.8,15.29,-24.83,-26.93,0,*45
1530349590.8,27101,17.0,73300.5,15.33,-25.55,-27.55,0,*4E
1530349592.05,27102,17.06,73298.3,15.33,-26.29,-28.97,0,*44
1530349593.28,27103,17.06,73296.8,15.35,-27.23,-29.61,0,*40
1530349594.48,27104,17.06,73298.5,15.31,-25.61,-27.71,0,*48
1530349595.74,27105,17.0,73298.8,15.33,-25.71,-27.89,0,*4D
1530349596.99,27106,17.0,73304.3,15.33,-26.45,-28.79,0,*4A
1530349598.21,27107,17.0,73300.8,15.33,-24.93,-27.03,0,*40
1530349599.45,27108,17.06,73300.5,15.37,-25.09,-27.23,0,*4B
1530349600.67,27109,17.0,73302.3,15.35,-28.85,-31.33,0,*47
1530349601.92,27110,17.06,73296.3,15.35,-31.85,-34.35,0,*44
1530349603.17,27111,17.06,73296.5,15.31,-30.17,-32.29,0,*40
1530349604.4,27112,17.0,73298.0,15.27,-27.55,-29.73,0,*41
1530349605.66,27113,17.0,73298.0,15.29,-27.61,-29.45,0,*4C
1530349606.89,27114,17.0,73300.5,15.27,-26.65,-28.75,0,*42
1530349608.13,27115,17.0,73302.5,15.27,-26.33,-28.69,0,*4D
1530349609.4,27116,17.0,73298.3,15.29,-25.81,-27.99,0,*4A
1530349610.63,27117,17.0,73298.8,15.29,-24.97,-27.07,0,*4A
1530349611.86,27118,17.0,73302.3,15.31,-26.39,-28.59,0,*4E
1530349613.09,27119,17.06,73304.0,15.31,-26.39,-28.47,0,*40
1530349614.37,27120,17.06,73302.5,15.33,-25.55,-28.21,0,*41
1530349615.6,27121,17.06,73296.8,15.31,-25.75,-27.77,0,*4C
1530349616.86,27122,17.0,73300.5,15.33,-26.03,-28.21,0,*43
1530349618.07,27123,17.0,73302.8,15.35,-26.07,-28.53,0,*45
1530349619.3,27124,17.06,73302.0,15.35,-27.39,-29.45,0,*48
1530349620.55,27125,17.0,73296.8,15.33,-25.75,-27.77,0,*4A
1530349621.77,27126,17.0,73300.8,15.37,-24.93,-27.03,0,*47
1530349623.03,27127,17.0,73300.3,15.35,-26.81,-29.01,0,*49
1530349624.27,27128,17.06,73306.5,15.35,-28.37,-30.51,0,*48
1530349625.49,27129,17.0,73298.0,15.35,-27.03,-29.17,0,*4B
1530349626.7,27130,17.0,73294.8,15.35,-25.87,-27.55,0,*45
1530349627.91,27131,17.06,73306.5,15.35,-28.15,-30.23,0,*45
1530349629.14,27132,17.0,73302.5,15.35,-28.05,-29.95,0,*42
1530349630.35,27133,17.0,73298.0,15.35,-26.49,-28.37,0,*4C
1530349631.61,27134,17.0,73296.3,15.35,-25.97,-27.83,0,*4B
1530349632.81,27135,17.06,73302.8,15.35,-27.07,-29.07,0,*43
1530349634.03,27136,17.0,73298.0,15.35,-27.23,-29.23,0,*40
1530349635.32,27137,17.0,73298.8,15.37,-28.75,-30.61,0,*41
1530349636.52,27138,17.0,73300.0,15.35,-28.15,-29.95,0,*49
1530349637.75,27139,17.0,73300.5,15.33,-27.29,-28.97,0,*4D
1530349638.97,27140,17.06,73304.8,15.33,-25.39,-27.13,0,*43
1530349640.26,27141,17.0,73300.5,15.33,-25.71,-27.61,0,*4B
1530349641.54,27142,17.06,73300.5,15.33,-25.75,-27.61,0,*4C
1530349642.77,27143,17.0,73298.8,15.39,-26.29,-28.31,0,*47
1530349643.98,27144,17.06,73302.0,15.35,-27.03,-28.85,0,*4A
1530349645.21,27145,17.06,73300.5,15.37,-26.65,-28.53,0,*43
1530349646.44,27146,17.0,73296.8,15.35,-29.29,-31.67,0,*4A
1530349647.67,27147,17.06,73292.5,15.35,-31.29,-33.49,0,*4C
1530349648.92,27148,17.0,73292.0,15.29,-29.29,-31.29,0,*43
1530349650.16,27149,17.06,73288.3,15.27,-29.61,-31.91,0,*43
1530349651.38,27150,17.0,73290.0,15.27,-27.99,-30.11,0,*4B
1530349652.61,27151,17.06,73292.3,15.27,-28.69,-30.95,0,*46
1530349653.84,27152,17.06,73288.8,15.23,-32.29,-34.77,0,*46
1530349655.08,27153,17.06,73288.8,15.17,-30.39,-32.57,0,*47
1530349656.31,27154,17.0,73282.5,15.15,-30.11,-32.35,0,*4C
1530349657.54,27155,17.0,73284.5,15.13,-30.17,-32.39,0,*41
1530349658.83,27156,17.0,73282.0,15.11,-28.63,-30.73,0,*46
1530349660.05,27157,17.06,73290.8,15.11,-27.77,-29.79,0,*4F
1530349661.29,27158,17.06,73294.5,15.09,-28.69,-30.73,0,*4B
1530349662.52,27159,17.06,73292.5,15.09,-27.29,-29.17,0,*4B
1530349663.75,27160,17.0,73292.5,15.09,-26.97,-28.85,0,*4F
1530349665.0,27161,17.06,73292.5,15.11,-27.55,-29.39,0,*4E
1530349666.26,27162,17.06,73298.0,15.09,-29.17,-31.23,0,*4E
1530349667.5,27163,17.0,73296.0,15.09,-27.83,-29.73,0,*40
1530349668.76,27164,17.06,73294.0,15.07,-29.51,-31.67,0,*44
1530349669.99,27165,17.0,73292.0,15.05,-30.33,-32.63,0,*4C
1530349671.22,27166,17.06,73288.5,15.05,-31.57,-33.83,0,*43
1530349672.51,27167,17.0,73290.0,15.03,-29.39,-31.73,0,*48
1530349673.73,27168,17.0,73290.8,14.99,-27.55,-29.61,0,*4B
1530349674.98,27169,17.06,73300.0,14.99,-27.13,-29.01,0,*4E
1530349676.27,27170,17.0,73296.8,15.03,-26.77,-28.75,0,*45
1530349677.51,27171,17.0,73292.5,15.03,-28.53,-30.67,0,*46
1530349678.74,27172,17.06,73290.3,15.01,-30.39,-32.51,0,*45
1530349680.02,27173,17.0,73292.0,14.99,-31.91,-33.89,0,*43
1530349681.25,27174,17.0,73290.0,14.91,-31.17,-33.15,0,*47
1530349682.47,27175,17.06,73288.5,14.91,-30.45,-32.23,0,*44
1530349683.71,27176,17.0,73288.0,14.91,-28.85,-30.67,0,*40
1530349684.95,27177,17.06,73292.8,14.89,-28.63,-30.67,0,*40
1530349686.18,27178,17.06,73292.8,14.89,-30.67,-32.63,0,*44
1530349687.42,27179,17.06,73296.3,14.89,-30.77,-32.51,0,*45
1530349688.66,27180,17.06,73292.5,14.87,-29.23,-31.29,0,*48
1530349689.89,27181,17.06,73292.5,14.85,-29.39,-31.33,0,*4B
1530349691.17,27182,17.0,73292.5,14.83,-29.29,-31.23,0,*4E
1530349692.4,27183,17.0,73294.0,14.83,-30.33,-32.35,0,*48
1530349693.65,27184,17.06,73298.0,14.83,-27.55,-29.39,0,*4F
1530349694.91,27185,17.0,73290.8,14.83,-29.39,-31.01,0,*48
1530349696.16,27186,17.06,73294.3,14.83,-28.43,-30.33,0,*47
1530349697.39,27187,17.06,73294.8,14.81,-27.07,-28.75,0,*40
1530349698.67,27188,17.06,73292.8,14.83,-26.17,-28.05,0,*4A
1530349699.92,27189,17.0,73294.8,14.85,-26.93,-28.75,0,*46
1530349701.13,27190,17.06,73294.5,14.85,-26.03,-27.89,0,*4B
1530349702.39,27191,17.06,73296.5,14.89,-26.29,-28.09,0,*49
1530349703.62,27192,17.06,73298.5,14.89,-26.61,-28.59,0,*43